Location: Newark
(49.8348°N, 24.0280°E)
Time: 15:17:22
(UTC+00:00)

A-11 Canister half - Visible Passes

Search period start: 23 January 2020 00:00
Search period end: 02 February 2020 00:00
Orbit: 1525 x 1684 km, 47.3° (Epoch: 23 January)

Date Brightness Start Highest point End Pass type
(mag) Time Alt. Az. Time Alt. Az. Time Alt. Az.
23 Jan 9.2 17:02:56 10° SW 17:12:00 57° SSE 17:16:44 31° E visible
23 Jan 9.1 19:07:07 10° W 19:15:03 65° WSW 19:15:03 65° WSW visible
23 Jan 10.9 21:11:54 10° W 21:13:21 16° W 21:13:21 16° W visible
24 Jan 9.2 16:41:23 10° SW 16:50:24 56° SSE 16:56:23 24° E visible
24 Jan 8.9 18:45:30 10° W 18:54:41 77° SSW 18:54:41 77° SSW visible
24 Jan 10.6 20:50:17 10° W 20:52:59 22° W 20:52:59 22° W visible
25 Jan 9.3 16:19:50 10° SW 16:28:48 54° SSE 16:36:00 18° E visible
25 Jan 8.8 18:23:53 10° W 18:33:19 77° S 18:34:18 71° SE visible
25 Jan 10.3 20:28:41 10° W 20:32:36 29° W 20:32:36 29° W visible
26 Jan 9.4 15:58:18 10° SW 16:07:13 52° SSE 16:15:37 13° E visible
26 Jan 8.9 18:02:17 10° WSW 18:11:41 77° S 18:13:55 58° ESE visible
26 Jan 10.0 20:07:03 10° W 20:12:13 37° W 20:12:13 37° W visible
27 Jan 9.5 15:36:46 10° SW 15:45:37 51° SSE 15:54:42 10° ENE visible
27 Jan 8.9 17:40:41 10° WSW 17:50:03 77° S 17:53:31 45° E visible
27 Jan 9.6 19:45:26 10° W 19:51:49 47° W 19:51:49 47° W visible
28 Jan 9.0 17:19:04 10° WSW 17:28:25 76° S 17:33:08 35° E visible
28 Jan 9.3 19:23:48 10° W 19:31:26 58° WSW 19:31:26 58° WSW visible
28 Jan 11.1 21:28:49 10° W 21:29:44 13° W 21:29:44 13° W visible
29 Jan 9.0 16:57:28 10° WSW 17:06:48 76° S 17:12:44 27° E visible
29 Jan 9.0 19:02:12 10° W 19:11:02 68° SW 19:11:02 68° SW visible
29 Jan 10.8 21:07:11 10° W 21:09:21 18° W 21:09:21 18° W visible
30 Jan 9.1 16:35:52 10° WSW 16:45:10 75° S 16:52:22 20° E visible
30 Jan 8.9 18:40:35 10° W 18:49:57 71° SSW 18:50:40 68° SSE visible
30 Jan 10.6 20:45:31 10° W 20:48:58 23° W 20:48:58 23° W visible
31 Jan 9.1 16:14:15 10° WSW 16:23:32 74° S 16:32:00 14° E visible
31 Jan 9.0 18:18:57 10° W 18:28:20 72° SSW 18:30:18 58° SE visible
31 Jan 10.3 20:23:53 10° WNW 20:28:36 29° W 20:28:36 29° W visible
01 Feb 9.2 15:52:39 10° WSW 16:01:56 73° SSE 16:11:27 10° E visible
01 Feb 9.0 17:57:21 10° W 18:06:42 72° SSW 18:09:57 46° SE visible
01 Feb 10.0 20:02:14 10° WNW 20:08:15 35° WSW 20:08:15 35° WSW visible
